TimeCST,TemperatureF,Dew PointF,Humidity,Sea Level PressureIn,VisibilityMPH,Wind Direction,Wind SpeedMPH,Gust SpeedMPH,PrecipitationIn,Events,Conditions,WindDirDegrees,DateUTC
12:53 AM,41.0,37.0,86,29.95,10.0,Calm,Calm,-,N/A,,Clear,0,2013-02-27 06:53:00
1:53 AM,39.9,37.0,89,29.95,10.0,Calm,Calm,-,N/A,,Clear,0,2013-02-27 07:53:00
2:53 AM,39.9,37.0,89,29.95,10.0,Calm,Calm,-,N/A,,Clear,0,2013-02-27 08:53:00
3:53 AM,39.9,37.0,89,29.95,10.0,Calm,Calm,-,N/A,,Clear,0,2013-02-27 09:53:00
4:53 AM,39.9,37.0,89,29.96,10.0,Calm,Calm,-,N/A,,Clear,0,2013-02-27 10:53:00
5:53 AM,39.9,37.0,89,29.96,10.0,Calm,Calm,-,N/A,,Clear,0,2013-02-27 11:53:00
6:53 AM,39.9,37.0,89,29.98,10.0,Calm,Calm,-,N/A,,Clear,0,2013-02-27 12:53:00
7:53 AM,43.0,39.0,86,30.00,10.0,Calm,Calm,-,N/A,,Clear,0,2013-02-27 13:53:00
8:53 AM,48.0,42.1,80,30.03,10.0,Calm,Calm,-,N/A,,Clear,0,2013-02-27 14:53:00
9:53 AM,55.0,39.0,55,30.03,10.0,Calm,Calm,-,N/A,,Clear,0,2013-02-27 15:53:00
10:53 AM,60.1,37.0,42,30.02,10.0,WSW,6.9,-,N/A,,Clear,250,2013-02-27 16:53:00
11:53 AM,63.0,36.0,37,30.00,10.0,WSW,13.8,18.4,N/A,,Clear,240,2013-02-27 17:53:00
12:53 PM,64.9,36.0,34,29.97,10.0,NNW,8.1,-,N/A,,Clear,330,2013-02-27 18:53:00
1:53 PM,66.9,36.0,32,29.95,10.0,West,11.5,19.6,0.00,,Clear,260,2013-02-27 19:53:00
2:53 PM,68.0,35.1,30,29.93,10.0,West,11.5,16.1,N/A,,Clear,280,2013-02-27 20:53:00
3:53 PM,69.1,35.1,29,29.93,10.0,NW,8.1,19.6,N/A,,Clear,310,2013-02-27 21:53:00
4:53 PM,66.9,36.0,32,29.94,10.0,WNW,11.5,-,N/A,,Partly Cloudy,300,2013-02-27 22:53:00
5:53 PM,62.1,37.0,39,29.95,10.0,NW,4.6,-,N/A,,Clear,320,2013-02-27 23:53:00
6:53 PM,55.0,41.0,59,29.96,10.0,Calm,Calm,-,N/A,,Clear,0,2013-02-28 00:53:00
7:53 PM,54.0,41.0,62,29.99,10.0,NW,3.5,-,N/A,,Mostly Cloudy,310,2013-02-28 01:53:00
8:53 PM,50.0,43.0,77,30.00,10.0,Calm,Calm,-,N/A,,Partly Cloudy,0,2013-02-28 02:53:00
9:53 PM,48.9,42.1,77,30.02,10.0,Calm,Calm,-,N/A,,Mostly Cloudy,0,2013-02-28 03:53:00
10:53 PM,48.0,42.1,80,30.01,10.0,Calm,Calm,-,N/A,,Scattered Clouds,0,2013-02-28 04:53:00
11:53 PM,50.0,37.9,63,30.03,10.0,NW,5.8,-,N/A,,Partly Cloudy,310,2013-02-28 05:53:00